This is the latest recevied weather packets stored in our database for station/object AI5BL. If no packets are shown the sender has not sent any weather packets the latest 10 day(s).
| Time | Temp. | Humidity | Pressure | Rain* | Wind** | Luminosity | Snow |
|---|---|---|---|---|---|---|---|
| 1777954998 | 16.11° C | 77% | 1016.7 hPa | 0 mm | - | 0 W/m² | - |
| 1777954695 | 16.67° C | 76% | 1016.6 hPa | 0 mm | - | 0 W/m² | - |
| 1777954392 | 16.67° C | 74% | 1016.4 hPa | 0 mm | - | 0 W/m² | - |
| 1777954089 | 16.67° C | 72% | 1016.5 hPa | 0 mm | - | 0 W/m² | - |
| 1777953787 | 16.67° C | 75% | 1016.7 hPa | 0 mm | - | 0 W/m² | - |
| 1777953483 | 16.67° C | 75% | 1016.4 hPa | 0 mm | - | 0 W/m² | - |
| 1777953179 | 16.67° C | 77% | 1016.6 hPa | 0 mm | - | 0 W/m² | - |
| 1777952877 | 16.67° C | 75% | 1016.5 hPa | 0 mm | - | 0 W/m² | - |
| 1777952574 | 17.22° C | 76% | 1016.6 hPa | 0 mm | - | 0 W/m² | - |
| 1777952270 | 17.22° C | 73% | 1016.2 hPa | 0 mm | - | 0 W/m² | - |
| 1777951968 | 17.78° C | 74% | 1016.3 hPa | 0 mm | - | 0 W/m² | - |
| 1777951665 | 17.78° C | 71% | 1016.2 hPa | 0 mm | - | 0 W/m² | - |
| 1777951361 | 17.78° C | 71% | 1016.4 hPa | 0 mm | - | 0 W/m² | - |
| 1777951059 | 17.78° C | 70% | 1016.1 hPa | 0 mm | - | 0 W/m² | - |
| 1777950755 | 17.78° C | 73% | 1016.4 hPa | 0 mm | - | 0 W/m² | - |
| 1777950452 | 17.78° C | 72% | 1016.4 hPa | 0 mm | - | 0 W/m² | - |
| 1777950148 | 17.78° C | 73% | 1016.4 hPa | 0 mm | - | 0 W/m² | - |
| 1777949844 | 18.33° C | 72% | 1016.3 hPa | 0 mm | - | 0 W/m² | - |
| 1777949542 | 18.33° C | 70% | 1016.3 hPa | 0 mm | - | 0 W/m² | - |
| 1777949240 | 18.33° C | 73% | 1016.2 hPa | 0 mm | - | 0 W/m² | - |
| 1777948937 | 18.33° C | 70% | 1016.3 hPa | 0 mm | - | 0 W/m² | - |
| 1777948635 | 18.33° C | 67% | 1016.3 hPa | 0 mm | - | 0 W/m² | - |
| 1777948332 | 18.33° C | 70% | 1016.2 hPa | 0 mm | - | 0 W/m² | - |
| 1777948029 | 18.33° C | 71% | 1016.2 hPa | 0 mm | - | 0 W/m² | - |
| 1777947726 | 18.89° C | 69% | 1016.3 hPa | 0 mm | - | 0 W/m² | - |
* Rain latest hour (hover to see other rain measurements)
** Current wind speed in m/s (hover to see current wind gust speed)